Weather History for KPKV - May, 2014

Change the Weather History Date:

Saturday, May 3, 2014

  Actual Average (KVCT) Record (KVCT)
Temperature  
Mean Temperature 70 °F 74 °F  
Max Temperature 87 °F 84 °F 99 °F (1984)
Min Temperature 52 °F 64 °F 45 °F (1929)
Degree Days  
Heating Degree Days 0 0  
Month to date heating degree days 0  
Since 1 July heating degree days 1248  
Cooling Degree Days 4 9  
Month to date cooling degree days 27  
Year to date cooling degree days 316  
Growing Degree Days 20 (Base 50)    
Moisture  
Dew Point 51 °F    
Average Humidity 58    
Maximum Humidity 94    
Minimum Humidity 22    
Precipitation  
Precipitation 0.00 in 0.15 in 2.69 in (1992)
Month to date precipitation 0.45  
Year to date precipitation 10.64  
Snow  
Snow 0.00 in - - ()
Month to date snowfall  
Since 1 July snowfall  
Snow Depth -    
Sea Level Pressure  
Sea Level Pressure 30.07 in    
Wind  
Wind Speed 9 mph (SSW)    
Max Wind Speed 18 mph    
Max Gust Speed 24 mph    
Visibility 10 miles    
Events      
T = Trace of Precipitation, MM = Missing Value Source: NWS Daily Summary

Daily Weather History Graph

Daily Weather History Graph

Search for Another Location

Airport or City:

Trip Planner

Search our weather history database for the weather conditions in past years. The results will help you decide how hot, cold, wet, or windy it might be!

Date:

Astronomy

May. 03, 2014 Rise Set
Actual Time 6:44 AM CDT 8:03 PM CDT
Civil Twilight 6:19 AM CDT 8:28 PM CDT
Nautical Twilight 5:49 AM CDT 8:58 PM CDT
Astronomical Twilight 5:18 AM CDT 9:29 PM CDT
Moon 10:18 AM CDT No Moon Set
Length of Visible Light 14h 09m
Length of Day
13h 19m
Waxing Crescent, 20% of the Moon is Illuminated
May 3
Waxing Crescent
May 6
First Quarter
May 14
Full
May 21
Last Quarter
May 28
New

Hourly Weather History & Observations

Time (CDT) Temp. Dew Point Humidity Pressure Visibility Wind Dir Wind Speed Gust Speed Precip Events Conditions
12:15 AM 61.3 °F 55.4 °F 81% 30.05 in 10.0 mi SSW 6.9 mph - N/A   Clear
12:35 AM 62.6 °F 55.8 °F 78% 30.05 in 10.0 mi SSW 8.1 mph - N/A   Clear
12:55 AM 61.9 °F 55.8 °F 80% 30.05 in 10.0 mi SSW 8.1 mph - N/A   Clear
1:15 AM 61.7 °F 56.3 °F 82% 30.05 in 10.0 mi SSW 8.1 mph - N/A   Clear
1:35 AM 60.6 °F 55.9 °F 85% 30.05 in 10.0 mi SSW 6.9 mph - N/A   Clear
2:00 AM 58.8 °F 55.4 °F 88% 30.05 in 10.0 mi SSW 5.8 mph - N/A   Clear
2:15 AM 58.1 °F 55.4 °F 91% 30.04 in 10.0 mi SSW 5.8 mph - N/A   Clear
3:15 AM 57.0 °F 54.5 °F 91% 30.04 in 10.0 mi SW 6.9 mph - N/A   Clear
3:35 AM 57.6 °F 54.9 °F 91% 30.04 in 10.0 mi SW 8.1 mph - N/A   Clear
3:55 AM 59.0 °F 54.9 °F 86% 30.03 in 10.0 mi SW 8.1 mph - N/A   Clear
4:15 AM 58.3 °F 54.9 °F 88% 30.04 in 10.0 mi SW 6.9 mph - N/A   Clear
4:35 AM 58.1 °F 54.9 °F 89% 30.04 in 10.0 mi SW 6.9 mph - N/A   Clear
4:55 AM 57.0 °F 54.5 °F 91% 30.04 in 10.0 mi SW 6.9 mph - N/A   Clear
5:15 AM 55.8 °F 53.8 °F 93% 30.04 in 10.0 mi SW 5.8 mph - N/A   Clear
5:35 AM 54.9 °F 53.1 °F 94% 30.05 in 10.0 mi SW 5.8 mph - N/A   Clear
5:55 AM 54.3 °F 52.5 °F 94% 30.05 in 10.0 mi SW 5.8 mph - N/A   Clear
6:15 AM 54.0 °F 51.8 °F 92% 30.06 in 10.0 mi SW 5.8 mph - N/A   Clear
6:35 AM 52.7 °F 50.0 °F 91% 30.06 in 10.0 mi SW 4.6 mph - N/A   Clear
6:55 AM 52.7 °F 50.0 °F 91% 30.07 in 10.0 mi SW 4.6 mph - N/A   Clear
7:15 AM 52.5 °F 50.0 °F 91% 30.08 in 10.0 mi SW 5.8 mph - N/A   Clear
7:35 AM 54.5 °F 51.8 °F 91% 30.09 in 10.0 mi SW 4.6 mph - N/A   Clear
7:55 AM 57.2 °F 53.4 °F 87% 30.09 in 10.0 mi WSW 5.8 mph - N/A   Clear
8:15 AM 60.4 °F 53.6 °F 78% 30.10 in 10.0 mi WSW 6.9 mph - N/A   Clear
8:35 AM 62.1 °F 52.2 °F 70% 30.11 in 10.0 mi SW 15.0 mph - N/A   Clear
8:55 AM 64.4 °F 52.7 °F 66% 30.11 in 10.0 mi WSW 13.8 mph - N/A   Clear
9:10 AM 66.2 °F 52.7 °F 62% 30.12 in 10.0 mi SW 12.7 mph - N/A   Clear
10:00 AM 72.0 °F 51.6 °F 49% 30.12 in 10.0 mi SW 16.1 mph - N/A   Clear
10:20 AM 73.9 °F 50.5 °F 44% 30.12 in 10.0 mi WSW 16.1 mph 20.7 mph N/A   Clear
10:40 AM 75.6 °F 50.2 °F 41% 30.12 in 10.0 mi WSW 16.1 mph - N/A   Clear
11:15 AM 79.0 °F 50.4 °F 37% 30.12 in 10.0 mi SW 13.8 mph 18.4 mph N/A   Clear
11:35 AM 79.5 °F 49.3 °F 35% 30.12 in 10.0 mi SW 13.8 mph - N/A   Clear
11:55 AM 81.1 °F 47.7 °F 31% 30.11 in 10.0 mi WSW 12.7 mph 17.3 mph N/A   Clear
12:15 PM 81.9 °F 46.0 °F 28% 30.11 in 10.0 mi WSW 11.5 mph - N/A   Clear
12:30 PM 82.4 °F 46.0 °F 28% 30.11 in 10.0 mi WSW 9.2 mph 18.4 mph N/A   Clear
12:55 PM 83.5 °F 46.2 °F 27% 30.10 in 10.0 mi SW 9.2 mph - N/A   Clear
1:15 PM 84.2 °F 44.8 °F 25% 30.09 in 10.0 mi West 6.9 mph - N/A   Clear
1:35 PM 85.1 °F 44.8 °F 24% 30.08 in 10.0 mi SW 4.6 mph 23.0 mph N/A   Clear
2:00 PM 86.5 °F 44.1 °F 23% 30.07 in 10.0 mi WSW 9.2 mph - N/A   Clear
2:15 PM 87.1 °F 44.4 °F 23% 30.06 in 10.0 mi SW 9.2 mph - N/A   Clear
2:35 PM 87.1 °F 43.9 °F 22% 30.06 in 10.0 mi SW 15.0 mph - N/A   Clear
3:00 PM 86.7 °F 48.4 °F 26% 30.05 in 10.0 mi South 13.8 mph - N/A   Clear
3:15 PM 86.4 °F 48.2 °F 27% 30.04 in 10.0 mi South 15.0 mph 18.4 mph N/A   Clear
3:35 PM 86.9 °F 49.3 °F 27% 30.03 in 10.0 mi South 15.0 mph 20.7 mph N/A   Clear
3:55 PM 86.2 °F 50.2 °F 29% 30.03 in 10.0 mi South 18.4 mph 21.9 mph N/A   Clear
4:15 PM 85.8 °F 51.1 °F 30% 30.03 in 10.0 mi South 15.0 mph 21.9 mph N/A   Clear
4:35 PM 85.5 °F 49.5 °F 29% 30.03 in 10.0 mi South 15.0 mph 23.0 mph N/A   Clear
4:55 PM 84.4 °F 47.5 °F 28% 30.03 in 10.0 mi South 17.3 mph 24.2 mph N/A   Clear
5:15 PM 83.8 °F 46.6 °F 27% 30.03 in 10.0 mi South 16.1 mph - N/A   Clear
5:35 PM 83.1 °F 44.1 °F 25% 30.03 in 10.0 mi South 18.4 mph 24.2 mph N/A   Clear
5:55 PM 83.3 °F 44.4 °F 25% 30.03 in 10.0 mi South 16.1 mph 19.6 mph N/A   Clear
6:15 PM 81.9 °F 44.8 °F 27% 30.03 in 10.0 mi South 18.4 mph 23.0 mph N/A   Clear
6:35 PM 80.6 °F 46.4 °F 30% 30.03 in 10.0 mi South 15.0 mph 21.9 mph N/A   Clear
6:55 PM 79.0 °F 47.8 °F 33% 30.03 in 10.0 mi South 11.5 mph 19.6 mph N/A   Clear
7:15 PM 77.9 °F 47.8 °F 35% 30.03 in 10.0 mi South 11.5 mph 16.1 mph N/A   Clear
7:35 PM 76.5 °F 46.8 °F 35% 30.04 in 10.0 mi South 13.8 mph - N/A   Clear
7:55 PM 73.8 °F 49.1 °F 42% 30.04 in 10.0 mi South 9.2 mph - N/A   Clear
8:15 PM 72.7 °F 52.9 °F 50% 30.05 in 10.0 mi South 10.4 mph - N/A   Clear
8:35 PM 71.6 °F 54.1 °F 54% 30.06 in 10.0 mi South 10.4 mph 17.3 mph N/A   Clear
8:55 PM 69.4 °F 54.5 °F 59% 30.06 in 10.0 mi South 9.2 mph - N/A   Clear
9:15 PM 68.0 °F 55.4 °F 64% 30.06 in 10.0 mi South 8.1 mph - N/A   Clear
9:35 PM 67.1 °F 55.9 °F 67% 30.07 in 10.0 mi South 8.1 mph - N/A   Clear
9:55 PM 66.7 °F 56.7 °F 70% 30.08 in 10.0 mi South 8.1 mph - N/A   Clear
10:15 PM 65.8 °F 57.2 °F 74% 30.08 in 10.0 mi South 6.9 mph - N/A   Clear
10:35 PM 64.6 °F 57.2 °F 77% 30.09 in 10.0 mi South 5.8 mph - N/A   Clear
10:55 PM 63.5 °F 56.8 °F 79% 30.09 in 10.0 mi South 5.8 mph - N/A   Clear
11:15 PM 62.6 °F 56.5 °F 80% 30.10 in 10.0 mi South 5.8 mph - N/A   Clear
11:35 PM 61.9 °F 56.3 °F 82% 30.10 in 10.0 mi South 5.8 mph - N/A   Clear
11:55 PM 61.3 °F 56.3 °F 83% 30.10 in 10.0 mi South 5.8 mph - N/A   Clear